User: anonymous   Login
Location: Unspecified
(0.0000°N, 0.0000°E)
Time: 21:54:32
(UTC+00:00)
Language:

METEOR-M - Orbit

View from above orbital plane
View from above orbital plane
View from above satellite
View from above satellite

Ground track
Ground track

The orbit data is extracted from the following two-line orbital elements,

1 35865U 09049A   18261.55254102  .00000020  00000-0  27472-4 0  9999
2 35865  98.4076 267.2931 0001260 235.5984 124.5075 14.22164506467246
Epoch (UTC): 18 September 2018 13:15:39
Eccentricity: 0.0001260
inclination: 98.4076°
perigee height: 817 km
apogee height: 819 km
right ascension of ascending node: 267.2931°
argument of perigee: 235.5984°
revolutions per day: 14.22164506
mean anomaly at epoch: 124.5075°
orbit number at epoch: 46724

The dashed part of the orbit path shows where the satellite is in the earth's shadow,  

DLR